Regional Weather Roundup
Issued by NWS Wilmington, NC

Home | Current Version | Previous Version | Text Only | Print | Product List | Glossary On
Versions: 1 2 3 4 5 6 7 8 9 10 11 12 13 14 15 16 17 18 19 20 21 22 23 24 25 26 27 28 29 30 31 32 33 34 35 36 37 38 39 40 41 42 43 44 45 46 47 48 49
130
ASUS42 KILM 061813
RWRILM
RWRILM
REGIONAL HOURLY WEATHER ROUNDUP
NATIONAL WEATHER SERVICE WILMINGTON NC
100 PM EST SAT FEB 06 2016

NOTE: "FAIR" INDICATES FEW OR NO CLOUDS BELOW 12,000 FEET WITH NO
SIGNIFICANT WEATHER AND/OR OBSTRUCTIONS TO VISIBILITY.

...............WFO WILMINGTON COUNTY WARNING AREA...............

......COASTAL NC AND SC COUNTIES......

CITY           SKY/WX    TMP DP  RH WIND       PRES   REMARKS
WILMINGTON     CLOUDY    50  25  37 N9        30.34F
N MYRTLE BEACH CLOUDY    51  28  41 NE8       30.32F
MYRTLE BEACH   NOT AVBL

......INLAND NC AND SC COUNTIES.......

CITY           SKY/WX    TMP DP  RH WIND       PRES   REMARKS
LUMBERTON      MOSUNNY   48  24  39 N10       30.35F
ELIZABETHTOWN  MOSUNNY   49  20  32 NE5       30.35F
WHITEVILLE     MOSUNNY   49  22  34 NE7       30.33F
FLORENCE       MOSUNNY   48  25  40 NE12      30.35F
DARLINGTON     SUNNY     52  23  32 N8        30.36F
KINGSTREE      FAIR      50  23  34 NE8       30.33F
HARTSVILLE     FAIR      48  21  34 NE10      30.34F
BENNETTSVILLE  FAIR      50  25  37 N9        30.35F
CONWAY         CLOUDY    46  28  49 NE8       30.33F HAZE
GEORGETOWN     CLOUDY    48  32  53 NE10      30.32F
MARION         FAIR      48  25  40 N7        30.35F

....................REST OF NORTH CAROLINA......................

.........EASTERN NC.........

CITY           SKY/WX    TMP DP  RH WIND       PRES   REMARKS
CAPE HATTERAS  CLOUDY    48  33  56 NE12G18   30.34F
JACKSONVILLE   MOSUNNY   48  23  37 N10       30.36F
MOREHEAD CITY  CLOUDY    47  30  51 N12       30.35F
KENANSVILLE      N/A     46  21  36 NE6       30.37F
NEW BERN       PTSUNNY   49  27  42 N10       30.37F
ELIZABETH CITY MOSUNNY   46  29  51 N9        30.38F

.........CENTRAL NC.........

CITY           SKY/WX    TMP DP  RH WIND       PRES   REMARKS
RALEIGH DURHAM PTSUNNY   46  18  32 CALM      30.38F
ROCKY MOUNT    SUNNY     45  23  42 N6        30.39F
ROANOKE RAPIDS NOT AVBL
FAYETTEVILLE   SUNNY     49  19  30 NE10      30.36F
HOFFMAN        SUNNY     47  19  32 N8        30.35F

.........WESTERN NC.........

CITY           SKY/WX    TMP DP  RH WIND       PRES   REMARKS
CHARLOTTE      MOSUNNY   47  14  26 CALM      30.34F
GREENSBORO     PTSUNNY   45  15  30 VRB6      30.34F
HICKORY        NOT AVBL
BOONE          NOT AVBL
ASHEVILLE      NOT AVBL

.....................REST OF SOUTH CAROLINA.....................

.........EASTERN SC.........

CITY           SKY/WX    TMP DP  RH WIND       PRES   REMARKS
CHARLESTON     PTSUNNY   56  28  34 N9        30.29F
BEAUFORT MCAS  CLOUDY    54  29  38 N8        30.29F
HILTON HEAD    PTSUNNY   50  30  46 NE12      30.29F

.........CENTRAL SC.........

CITY           SKY/WX    TMP DP  RH WIND       PRES   REMARKS
COLUMBIA       MOSUNNY   52  20  28 NE8       30.32F
ORANGEBURG     LGT RAIN  48  25  40 NE9       30.32F
SUMTER SHAW    MOSUNNY   49  22  34 NE14      30.31F

.........WESTERN SC.........

CITY           SKY/WX    TMP DP  RH WIND       PRES   REMARKS
GREENVILLE     NOT AVBL
ROCK HILL      SUNNY     47  18  31 NE8       30.35F
ANDERSON       SUNNY     48  16  27 MISG      30.33F
CLEMSON        NOT AVBL
GREENWOOD      LGT RAIN  49  18  29 NE8       30.34F


...................COASTAL AND OFFSHORE REPORTS..................

................LOCAL PIERS AND NC RESERVE................


STATION/POSITION TIME  SKY/WX   TEMP    WIND        PRES    VSBY
                                AIR SEA DIR/SP/G
                 (UTC)          (F)     (DEG/KT/KT) (MB)    (MI)
JOHNY MRCER PIER 1700            45 54   30/ 13/ 15 1027.5F
NC RESRV MASNBRO NOT AVBL
OCEAN CREST PIER NOT AVBL
SPRINGMAID  PIER 1700            46 52   30/ 12/ 14 1027.8F


................COASTAL AND OFFSHORE BUOYS................


STATION/POSITION TIME  SKY/WX   TEMP    WIND        PRES    VSBY
                                AIR SEA DIR/SP/G
                 (UTC)          (F)     (DEG/KT/KT) (MB)    (MI)
DIMNDSHOAL 41025 1750            49 72   40/ 17/ 21 1027.2F
WVE H/P(F/S)=  6/11 SWL H/P/D(F/S/D)=  5/ 60/11

CAPE LOOKOUT     NOT AVBL
ONSLOW BAY 41036 NOT AVBL
ONSLOW BAY 41064 1708            48 64              1026.7F
ONSLOW BAY 41159 1725               64                N/A
WVE H/P(F/S)=  5/ 5 SWL H/P/D(F/S/D)=  2/100/11

5SE WRITBC 41038 1708            45 54   40/ 17/ 21 1028.4F
MASNBO INL 41110 1706               54                N/A
WVE H/P(F/S)=  4/ 5 SWL H/P/D(F/S/D)=  2/100/11

WILM HARBR 41108 1726               54                N/A
WVE H/P(F/S)=  4/ 4 SWL H/P/D(F/S/D)=  2/130/11

27SE WRITB 41037 1708            49 69  360/ 16/ 23 1027.4F
FRYING PAN 41013 1700            51 68   20/ 19/ 25 1027.3F
SUNST NRSH 41024 NOT AVBL
CAPRS NRSH 41029 1708            49      60/ 21/ 29 1025.9F
EDISTO     41004 1750            53 65   40/ 23/ 27 1024.2F
WVE H/P(F/S)=  7/ 6 SWL H/P/D(F/S/D)=  3/ 9



..........OFFSHORE BUOYS BEYOND 100 NM OFFSHORE...........
.....IN A TRIANGLE---HAT TO BERMUDA TO BAHAMAS TO HAT.....


STATION/POSITION TIME  SKY/WX   TEMP    WIND        PRES    VSBY
                                AIR SEA DIR/SP/G
                 (UTC)          (F)     (DEG/KT/KT) (MB)    (MI)
150E HAT   41001 1700            58 73   30/  6/ 12 1026.7F
W BERMUDA  41048 1750            66 70   70/ 12/ 16 1022.3F
WVE H/P(F/S)= 10/12 SWL H/P/D(F/S/D)= 10/340/12

ATLANTIC S 41049 1750            75 74  150/ 10/ 12 1020.1F
WVE H/P(F/S)=  8/10 SWL H/P/D(F/S/D)=  8/100/10

E BAHAMAS  41046 1750            78 79  120/ 12/ 16 1017.7F
WVE H/P(F/S)=  7/11 SWL H/P/D(F/S/D)=  7/ 60/11

NE BAHAMAS 41047 1750            74 76   90/ 16/ 19 1018.6F
WVE H/P(F/S)=  9/10 SWL H/P/D(F/S/D)=  8/ 50/10

120E CANVRL41010 1720            69 74              1021.9F

END




USA.gov is the U.S. government's official web portal to all federal, state and local government web resources and services.